sat.trackr.live / text

‹ back to catalog

STARLINK-2614

NORAD 48380 · 2021-038AD

PAYLOAD ACTIVE UNKNOWN

§ Identity

Operator
Country
US
Launch date
2021-05-04
Launch site
AFETR
Launch vehicle
Mass (kg)
RCS (m²)

Purposes: comms

External: N2YO · Heavens-Above · Gunter

§ Orbital elements

Epoch: 2026-05-24T23:40:27.488064Z

Period
94.01 min
Inclination
53.1601°
Eccentricity
0.0001122
Mean motion
15.31714988 rev/d
Perigee alt
469.9 km
Apogee alt
471.5 km
Semi-major
6,848.8 km
B*
1.7575e-4
RAAN
350.7711°
Arg perigee
84.7141°
Mean anomaly
275.3989°
Rev number
27,894

§ Raw data

STARLINK-26141 48380U 21038AD  26144.98642926  .00005095  00000+0  17575-3 0  99962 48380  53.1601 350.7711 0001122  84.7141 275.3989 15.31714988278946

JSON: /api/v1/satellites/48380 · /tle

For live sub-satellite position, see the globe view (requires WebGL).

§ Visibility from observer

Set your observer location to see the next 7 days of passes ≥ 10°. The values pass through the URL so the page stays shareable.

No JS? Fill the form by hand. The geolocation button needs JavaScript.